Temperature
17 17 16 15 14 14 13 12 12 12 12 11 11 11 11 11 11 11 10 10 10 10 10 10 10 10 11 11 11 12 12 12 12 12 12 11 11 11 12 13 13 13 13
18 17 16 16 15 14 13 12 12 12 11 11 11 11 11 10 10 10 10 10 10 10 10 9 10 10 10 11 11 12 12 12 12 12 12 11 10 11 11 11 11 11 12
18 17 16 16 15 14 13 13 12 12 11 11 11 11 10 10 10 10 9 9 9 9 9 9 10 10 11 11 11 12 12 12 12 12 11 10 10 10 10 10 10 11 11
18 17 16 16 15 14 13 13 13 12 12 11 11 11 10 10 10 10 9 9 9 9 9 9 10 10 11 11 12 12 12 12 12 11 10 10 9 9 9 9 10 10 10
18 17 16 16 16 15 14 13 13 12 12 11 11 11 10 10 10 9 9 9 9 9 9 9 9 10 10 11 11 12 12 11 11 10 10 10 9 9 9 9 9 9 9
18 17 16 16 16 15 14 13 13 12 12 11 11 10 10 10 9 9 9 9 9 9 9 9 9 9 10 11 11 11 11 11 10 10 10 9 9 8 9 9 9 9 9
18 17 16 16 15 15 14 13 13 12 12 12 11 11 10 10 9 9 9 9 9 9 9 9 9 9 10 10 11 11 11 11 10 10 10 9 9 8 9 9 9 9 9
18 17 16 16 15 15 14 13 13 12 12 12 11 11 10 10 10 10 10 9 9 9 9 9 10 10 10 10 10 10 11 10 10 10 10 9 9 8 9 9 9 9 9
18 17 16 15 15 14 13 13 13 12 12 11 11 11 10 10 10 9 9 9 9 9 10 10 10 10 10 10 10 10 10 10 10 10 10 9 9 9 9 9 9 9 9
18 17 15 14 14 13 13 13 12 12 11 11 11 10 10 10 10 9 9 9 9 10 10 10 10 10 10 10 10 10 10 10 10 10 10 10 10 9 9 9 9 9 9
18 17 16 14 13 13 12 12 12 11 11 11 10 10 10 10 9 9 9 9 9 9 9 10 10 10 10 10 10 10 10 9 9 10 10 10 10 10 9 9 9 9 9
18 17 16 15 14 13 12 11 11 11 11 10 10 10 10 9 9 9 9 10 9 9 9 9 9 9 9 9 9 10 9 9 9 9 10 10 10 10 9 9 9 9 9
17 17 16 15 14 13 12 12 11 10 10 10 10 10 10 9 10 10 9 9 9 9 9 9 9 8 9 9 9 9 9 9 9 9 9 9 9 9 9 8 8 8 8
16 16 16 15 15 14 13 12 12 11 11 10 10 10 10 10 10 10 10 9 9 9 9 9 9 8 9 9 9 9 9 9 9 9 9 9 9 9 9 9 8 7 7
17 16 16 15 15 14 13 12 12 12 11 11 11 10 10 10 10 9 9 9 9 9 9 9 8 8 8 8 9 9 9 9 9 9 9 9 9 9 9 9 8 8 7
17 17 16 15 15 14 14 13 12 11 11 11 10 10 10 9 9 9 9 9 8 8 8 8 8 7 8 8 8 8 8 8 9 9 9 9 9 9 9 9 9 8 8
17 17 16 16 15 14 13 13 12 11 11 10 10 10 10 9 9 8 8 8 8 8 8 8 7 7 7 7 8 8 8 8 8 8 8 9 9 9 9 9 9 9 8
18 17 17 16 15 14 13 12 12 11 11 10 10 9 9 9 8 8 8 8 8 8 8 7 7 7 7 7 7 7 7 7 8 8 8 8 9 9 9 9 9 9 9
17 17 17 16 15 14 13 12 11 11 11 10 10 9 9 9 8 8 8 8 7 7 8 7 7 7 6 6 6 6 6 7 7 8 8 8 8 9 9 9 9 9 9
17 16 16 15 15 14 13 12 12 11 11 11 10 10 9 9 9 8 8 8 7 7 8 7 7 7 7 6 6 6 6 6 6 7 8 8 8 8 9 9 9 9 9
16 16 15 15 14 14 13 12 12 12 11 11 11 10 10 10 9 9 9 8 8 8 8 7 7 7 7 6 6 6 6 6 6 7 7 8 8 8 8 8 8 8 9
15 15 14 14 14 13 13 12 12 12 11 11 11 11 10 10 10 9 9 9 8 8 8 8 7 7 7 6 5 4 4 6 6 5 6 6 7 7 7 7 7 7 7
14 14 14 13 13 13 12 12 12 12 11 11 11 10 10 10 10 9 9 9 8 8 8 8 7 6 6 6 5 4 3 5 5 5 4 4 5 5 5 6 6 6 6
13 13 13 13 13 12 12 12 11 11 10 10 10 10 9 9 9 9 8 8 8 7 7 7 7 6 6 6 5 4 4 3 2 3 4 4 4 4 4 4 5 5 6
13 12 12 12 12 12 11 11 11 10 10 9 9 9 8 8 8 8 8 7 7 7 7 7 6 6 6 5 5 4 3 3 2 1 2 3 4 3 3 3 3 3 5
12 12 12 11 11 11 11 10 10 9 9 8 8 8 8 7 7 7 7 7 6 6 6 6 6 6 6 5 5 5 4 2 2 2 2 2 3 3 3 3 2 2 3
Wind_Speed
11 17 20 19 17 15 14 12 11 11 10 9 10 10 10 11 11 11 12 12 12 13 13 13 14 14 14 15 16 16 16 16 17 18 18 17 17 17 17 16 15 15 17
14 20 21 20 18 16 15 13 12 11 10 9 9 9 10 10 10 10 11 11 12 12 12 13 13 13 14 14 14 15 15 15 15 15 15 15 16 16 16 16 16 15 16
15 21 22 21 19 17 15 14 12 11 10 9 9 9 9 9 9 9 9 10 10 11 11 12 12 12 13 13 13 13 14 14 13 13 12 12 13 15 15 15 15 15 15
17 21 21 22 20 18 16 15 13 12 11 10 9 9 8 8 8 9 8 9 9 10 10 10 11 11 11 11 12 12 12 13 12 11 11 11 11 13 14 14 14 14 14
17 20 20 22 20 18 17 15 14 12 11 10 9 8 8 8 7 8 8 8 8 8 9 9 9 10 10 10 10 10 11 11 10 10 10 10 10 11 12 12 12 12 12
17 19 21 23 21 19 18 16 15 13 12 11 9 8 8 7 7 7 7 7 6 7 7 8 8 8 8 8 9 9 9 8 6 8 8 9 9 10 10 10 10 10 10
16 18 20 22 21 20 18 17 16 14 13 11 10 9 8 7 7 6 6 5 5 5 5 6 6 7 7 7 7 7 7 6 5 6 6 7 8 8 9 8 8 9 9
15 17 19 22 21 20 19 18 16 15 13 12 11 9 8 7 7 6 5 5 4 4 4 4 4 5 5 5 5 5 5 4 3 3 4 5 7 6 6 7 7 7 7
14 16 17 20 20 20 19 18 17 15 14 13 11 10 9 8 7 7 6 5 4 3 2 2 2 2 3 3 3 3 3 4 2 2 2 4 7 6 5 4 5 5 5
13 15 16 17 18 18 18 18 17 16 14 13 12 10 9 8 8 7 7 6 5 4 3 2 1 1 0 1 1 0 0 3 2 3 4 3 7 7 5 4 4 4 4
12 14 16 16 16 17 16 17 17 16 14 13 12 11 10 9 9 8 7 7 6 5 5 4 4 4 3 3 2 2 4 5 4 5 5 5 8 8 7 6 6 6 6
15 15 14 15 15 15 14 14 14 14 14 14 12 12 11 9 8 6 6 7 6 5 6 6 6 6 7 6 4 5 6 7 7 7 7 8 10 11 11 10 9 9 9
12 14 14 15 15 14 13 13 12 12 12 13 13 12 10 9 8 8 7 8 8 7 8 6 7 8 8 7 7 8 8 9 8 8 9 10 13 14 14 14 13 13 12
11 13 14 15 15 15 14 13 12 11 11 11 11 12 10 9 9 8 8 8 8 8 9 9 9 10 10 11 11 11 11 10 10 10 11 13 15 16 17 17 17 16 16
11 12 14 15 16 15 14 12 12 12 12 12 11 12 13 10 10 10 10 10 10 10 10 10 11 11 12 12 12 13 13 14 14 13 12 15 18 19 20 20 20 20 20
10 11 12 14 16 16 14 13 12 12 12 12 12 13 14 13 11 10 11 11 11 12 12 12 13 12 12 12 13 15 15 16 16 16 16 15 19 21 23 23 23 23 23
7 8 10 12 14 15 15 14 12 12 12 12 12 14 15 15 14 12 11 11 12 13 13 13 14 13 12 12 14 16 16 17 17 18 18 17 17 20 24 26 26 26 26
4 6 7 8 10 12 12 12 11 11 12 12 12 13 15 16 16 14 12 12 13 12 12 11 11 11 11 12 12 12 13 15 18 19 19 19 18 18 20 25 28 29 30
4 5 5 7 7 8 9 9 10 9 10 11 11 12 13 15 16 15 14 14 14 12 11 11 11 11 12 13 13 13 13 13 16 18 19 21 21 21 20 22 27 31 32
8 7 6 5 5 5 5 6 6 7 8 10 10 12 13 13 14 15 14 15 14 10 11 11 12 12 12 12 13 14 15 15 15 16 18 20 21 23 23 23 22 23 30
11 9 8 6 5 5 4 4 4 5 6 6 9 11 13 13 13 13 12 13 12 11 12 13 12 13 12 10 10 12 14 17 17 16 15 15 17 20 21 22 21 20 19
12 11 9 7 6 4 3 2 1 2 3 4 6 8 10 11 12 12 13 11 11 10 12 12 12 10 9 8 7 9 9 11 12 12 12 13 14 15 16 20 21 20 19
12 10 8 8 6 4 3 2 1 1 2 2 3 4 6 8 10 11 12 12 10 10 10 12 11 13 11 10 9 8 8 8 9 8 11 12 13 13 14 16 19 21 21
10 9 9 8 7 5 3 1 1 1 2 3 4 4 5 5 7 9 10 11 11 10 11 12 11 11 12 11 10 11 13 11 10 9 9 11 13 14 16 15 16 19 21
8 8 8 8 7 5 3 1 1 2 3 4 4 5 5 4 5 6 8 9 9 9 11 12 12 12 11 13 11 11 12 13 15 12 16 16 15 14 15 16 15 16 20
7 6 6 7 6 5 3 2 2 3 4 5 5 5 5 4 4 5 6 8 9 9 10 11 12 14 13 15 13 13 13 12 12 14 16 18 18 16 17 15 15 15 18
Wind_Direction
173 168 170 170 166 163 158 153 143 134 126 119 110 103 97 93 89 84 79 76 74 70 67 67 66 64 62 61 60 59 58 57 55 52 52 58 62 61 60 57 56 57 56
164 166 170 169 167 165 162 156 150 143 135 128 121 112 105 100 94 88 82 78 75 72 68 67 67 65 63 63 62 62 62 60 58 55 54 56 59 61 58 56 56 58 57
159 164 169 169 168 168 165 159 156 152 145 139 131 121 114 109 102 94 89 83 78 74 71 69 68 67 65 64 64 63 63 61 57 54 57 54 55 59 58 56 56 56 56
162 165 169 168 170 170 167 163 160 157 151 145 137 128 124 117 108 102 96 90 83 78 74 71 71 70 68 66 65 64 62 58 53 51 56 50 48 56 56 55 54 54 53
164 168 167 169 171 171 169 166 165 163 159 155 148 141 134 125 116 109 102 95 88 82 76 73 71 72 72 68 66 65 61 55 52 58 57 49 44 52 53 52 51 50 49
167 170 168 171 173 174 173 171 170 169 166 164 159 155 149 139 128 119 111 103 96 89 82 76 72 71 74 72 68 65 60 49 54 59 54 46 39 47 49 49 48 46 45
169 172 170 174 176 176 176 175 174 174 174 172 169 167 161 152 143 135 127 119 109 99 90 81 75 70 70 71 69 64 56 39 50 58 48 39 32 39 42 41 41 40 39
172 174 173 177 180 180 181 180 179 180 180 179 177 177 172 165 159 153 148 141 132 117 100 86 76 70 65 67 67 63 52 25 40 46 38 30 24 27 33 28 28 29 28
177 178 178 180 184 185 186 185 185 186 186 186 185 186 183 178 177 174 169 166 162 149 130 107 83 66 59 60 63 64 54 15 329 345 340 358 357 359 12 11 5 6 8
183 186 185 185 186 188 189 190 190 191 192 193 192 192 191 190 193 192 191 185 187 190 191 198 210 245 333 3 5 31 111 269 293 280 277 308 330 326 329 329 327 326 328
192 194 193 192 189 191 192 189 193 194 197 199 199 195 198 207 204 202 199 190 207 215 221 229 238 242 242 243 260 248 248 277 285 277 272 287 299 299 297 294 292 292 291
196 197 197 197 194 193 193 192 198 200 201 205 208 204 208 214 214 213 177 201 218 229 235 240 243 234 242 252 234 231 263 273 276 268 264 270 279 283 282 279 276 274 274
201 197 202 201 199 198 196 198 200 201 203 208 212 211 212 214 217 221 221 212 221 227 237 231 238 245 252 260 266 263 269 275 268 267 262 259 268 273 274 274 271 268 266
206 203 202 202 203 204 204 202 205 205 205 208 209 213 214 218 224 229 233 236 236 235 241 246 251 253 255 257 259 264 265 261 262 264 262 256 261 265 268 269 268 266 264
213 208 205 204 205 205 210 211 211 213 213 214 215 217 221 225 230 234 240 241 244 247 247 250 255 260 260 260 258 260 263 262 261 260 260 255 255 258 262 264 265 264 263
217 211 205 206 208 207 210 214 216 219 218 223 221 224 226 232 237 239 246 246 250 250 253 256 260 264 265 264 264 262 262 263 261 259 258 257 252 252 254 258 260 261 261
216 209 205 206 208 211 215 219 223 225 226 227 229 231 231 235 241 244 251 252 253 254 256 258 263 265 266 267 266 266 264 263 261 260 259 257 255 250 249 252 254 256 257
184 188 193 196 207 211 216 220 224 229 232 235 238 238 238 241 244 249 253 256 258 258 256 257 261 262 263 265 268 269 265 262 262 262 260 256 254 254 250 248 250 252 253
115 139 162 181 195 205 213 220 228 234 238 243 244 245 245 246 247 249 255 260 262 257 256 259 260 261 267 270 270 271 269 266 264 262 259 257 253 251 252 252 249 250 250
88 102 121 147 169 180 195 212 223 236 242 246 247 248 249 249 248 250 255 259 261 256 256 257 260 262 264 272 277 275 271 267 262 259 259 258 254 250 249 250 251 250 248
82 88 97 114 134 153 165 189 216 235 243 246 249 254 254 253 252 249 254 260 256 253 257 262 263 265 265 267 275 278 272 262 256 254 253 254 253 251 249 248 247 248 249
77 81 88 97 116 141 155 173 216 264 272 274 267 263 260 257 255 252 254 258 258 257 260 261 260 260 265 255 259 285 289 282 255 245 249 249 252 252 249 246 245 244 245
73 74 80 86 99 115 139 153 179 245 260 262 270 277 275 269 263 256 257 260 260 258 260 261 258 252 256 259 240 250 273 280 302 261 243 247 251 253 253 250 247 246 244
77 78 81 84 87 96 126 151 191 318 337 343 331 314 305 287 275 268 264 263 263 259 259 260 257 254 254 259 256 240 246 263 276 287 266 253 254 257 259 258 254 251 247
86 83 84 85 81 82 90 86 337 328 330 327 322 315 315 305 288 277 271 266 263 261 260 261 260 254 249 250 254 254 251 253 252 257 276 278 272 262 258 258 258 255 252
97 90 88 86 79 73 72 64 19 348 332 327 327 324 321 313 302 288 278 271 266 263 263 262 260 257 253 252 252 252 253 252 253 255 268 275 276 274 269 262 257 255 254
Height
1561 1562 1563 1565 1566 1567 1569 1570 1570 1571 1571 1572 1572 1572 1571 1571 1571 1570 1570 1569 1568 1567 1567 1566 1565 1564 1563 1563 1562 1562 1561 1561 1560 1560 1559 1559 1558 1557 1557 1556 1556 1555 1555
1561 1562 1563 1565 1566 1568 1569 1570 1571 1571 1572 1572 1572 1572 1572 1572 1571 1571 1570 1570 1569 1568 1568 1567 1566 1565 1564 1563 1563 1562 1562 1561 1561 1561 1560 1560 1560 1559 1558 1557 1556 1556 1555
1560 1562 1563 1565 1567 1568 1569 1570 1571 1572 1572 1572 1573 1572 1572 1572 1572 1571 1571 1570 1570 1569 1568 1568 1567 1566 1565 1564 1564 1563 1563 1562 1562 1562 1562 1561 1561 1560 1559 1558 1557 1557 1556
1560 1562 1563 1565 1567 1568 1570 1571 1571 1572 1573 1573 1573 1573 1573 1573 1573 1572 1572 1571 1571 1570 1569 1569 1568 1567 1566 1566 1565 1564 1564 1564 1563 1563 1563 1562 1561 1561 1560 1559 1558 1557 1557
1560 1562 1563 1565 1567 1568 1570 1571 1572 1572 1573 1573 1574 1574 1574 1574 1573 1573 1572 1572 1571 1571 1570 1569 1569 1568 1567 1567 1566 1566 1565 1565 1564 1564 1563 1563 1562 1562 1561 1560 1559 1558 1557
1560 1561 1563 1564 1566 1568 1569 1571 1572 1573 1573 1574 1574 1574 1574 1574 1574 1573 1573 1573 1572 1571 1571 1570 1570 1569 1568 1568 1567 1566 1566 1566 1565 1565 1564 1564 1563 1562 1561 1560 1559 1558 1557
1560 1561 1562 1564 1566 1567 1569 1570 1571 1573 1573 1574 1574 1575 1575 1575 1574 1574 1574 1573 1573 1572 1572 1571 1571 1570 1569 1568 1568 1567 1567 1566 1566 1565 1564 1564 1563 1562 1561 1560 1559 1558 1558
1560 1561 1562 1563 1565 1567 1568 1570 1571 1572 1573 1574 1574 1575 1575 1575 1575 1574 1574 1574 1573 1573 1572 1572 1571 1571 1570 1569 1568 1568 1567 1566 1566 1565 1565 1564 1563 1562 1561 1560 1559 1558 1557
1558 1560 1561 1562 1564 1566 1567 1569 1570 1572 1573 1574 1574 1575 1575 1575 1575 1575 1575 1574 1574 1573 1573 1572 1571 1571 1570 1569 1569 1568 1567 1566 1566 1565 1564 1564 1563 1562 1561 1560 1559 1558 1557
1557 1558 1560 1562 1563 1565 1566 1568 1569 1571 1572 1573 1574 1574 1575 1575 1575 1575 1575 1574 1574 1573 1573 1572 1571 1571 1570 1569 1569 1568 1567 1566 1565 1564 1564 1563 1562 1561 1560 1559 1558 1557 1556
1554 1556 1558 1560 1562 1564 1565 1567 1568 1569 1571 1572 1573 1573 1574 1575 1576 1575 1575 1574 1573 1573 1572 1572 1571 1570 1570 1569 1568 1567 1566 1565 1564 1563 1562 1562 1561 1560 1559 1558 1557 1556 1555
1552 1553 1555 1557 1559 1562 1563 1565 1567 1568 1569 1570 1572 1572 1573 1574 1574 1574 1573 1573 1573 1572 1571 1571 1570 1569 1568 1568 1567 1566 1565 1564 1563 1561 1560 1560 1559 1558 1557 1556 1555 1554 1553
1549 1551 1553 1555 1557 1559 1561 1563 1565 1566 1567 1568 1570 1571 1571 1572 1572 1572 1572 1571 1571 1570 1570 1569 1569 1568 1567 1566 1565 1564 1563 1562 1560 1559 1558 1557 1556 1555 1554 1553 1553 1552 1551
1546 1548 1550 1552 1554 1556 1558 1560 1562 1563 1564 1566 1567 1568 1569 1569 1570 1570 1570 1570 1569 1568 1568 1567 1566 1565 1564 1563 1562 1561 1560 1558 1557 1556 1555 1554 1552 1551 1550 1550 1549 1548 1548
1543 1545 1547 1549 1551 1553 1555 1557 1559 1560 1562 1563 1564 1565 1566 1566 1567 1567 1567 1567 1566 1566 1565 1564 1563 1562 1561 1559 1558 1557 1556 1554 1553 1551 1550 1549 1548 1547 1546 1545 1544 1544 1544
1540 1542 1544 1546 1548 1550 1552 1554 1556 1557 1558 1560 1561 1562 1563 1563 1564 1564 1563 1563 1563 1562 1561 1560 1559 1558 1556 1555 1553 1552 1550 1549 1547 1546 1544 1543 1542 1541 1540 1540 1539 1538 1538
1537 1539 1540 1543 1545 1546 1549 1551 1552 1554 1555 1556 1557 1558 1559 1559 1560 1560 1559 1559 1558 1557 1557 1555 1554 1553 1551 1549 1547 1546 1544 1543 1541 1539 1538 1536 1535 1534 1534 1533 1532 1532 1531
1535 1536 1538 1539 1541 1543 1545 1547 1549 1550 1551 1552 1553 1554 1554 1555 1555 1555 1555 1554 1554 1552 1551 1550 1549 1547 1545 1543 1541 1539 1537 1534 1533 1532 1530 1528 1527 1526 1525 1525 1525 1524 1524
1534 1535 1536 1537 1539 1540 1542 1543 1545 1546 1547 1548 1549 1549 1549 1550 1550 1550 1549 1549 1548 1546 1545 1544 1543 1541 1539 1537 1534 1531 1529 1526 1524 1523 1521 1520 1518 1516 1516 1516 1516 1515 1515
1534 1535 1536 1536 1537 1538 1540 1541 1542 1543 1544 1544 1545 1545 1545 1545 1544 1544 1543 1543 1542 1540 1539 1538 1536 1535 1532 1530 1528 1524 1520 1518 1515 1513 1512 1511 1509 1507 1506 1506 1505 1504 1504
1536 1536 1537 1537 1538 1539 1539 1540 1541 1542 1542 1542 1542 1541 1541 1540 1539 1539 1538 1537 1536 1534 1533 1532 1530 1528 1526 1524 1520 1516 1512 1510 1506 1503 1502 1501 1500 1499 1497 1495 1494 1493 1491
1538 1538 1539 1539 1539 1540 1540 1541 1541 1541 1540 1540 1539 1539 1538 1537 1536 1534 1533 1532 1531 1529 1527 1526 1524 1522 1519 1518 1515 1511 1506 1503 1499 1495 1493 1492 1491 1489 1487 1486 1484 1482 1481
1540 1541 1541 1541 1541 1541 1541 1541 1541 1540 1540 1539 1538 1536 1535 1534 1532 1531 1529 1528 1526 1524 1522 1521 1518 1516 1513 1512 1509 1507 1504 1498 1494 1489 1485 1483 1481 1479 1478 1476 1474 1472 1471
1542 1543 1543 1543 1543 1542 1542 1541 1541 1540 1539 1538 1536 1534 1533 1531 1529 1527 1525 1524 1522 1519 1517 1515 1513 1510 1508 1505 1503 1500 1497 1494 1490 1482 1480 1477 1472 1470 1468 1466 1463 1461 1460
1544 1544 1544 1544 1543 1543 1542 1541 1540 1539 1537 1536 1534 1532 1530 1528 1526 1524 1522 1520 1517 1515 1512 1510 1507 1505 1501 1499 1496 1493 1490 1486 1482 1477 1469 1469 1467 1463 1460 1456 1453 1451 1449
1544 1544 1544 1544 1543 1542 1541 1540 1538 1537 1535 1533 1531 1529 1527 1525 1522 1520 1517 1515 1512 1510 1507 1504 1501 1498 1495 1492 1489 1485 1482 1479 1475 1471 1463 1459 1456 1454 1452 1449 1444 1441 1438